• în România
  • Lista ţărilor
  • Pe 7 zile
  • Temperatura apei
  • Hartă satelitară
  • Meteo pe hartă
  • Widget-uri
  • user-avatar
    Intrare

    Meteo pe oră la Quito

    Astăzi, 28 Mai, Duminică

    Timp Temperatura Precipitaţii Vânt Presiune Umiditate
    00:00 +18°C° 0 mm 1 m/s 624 mmHg 80%
    01:00 +16°C° 0 mm 1 m/s 624 mmHg 81%
    02:00 +16°C° 0 mm 1 m/s 624 mmHg 83%
    03:00 +15°C° 0 mm 1 m/s 623 mmHg 84%
    04:00 +15°C° 0 mm 1 m/s 623 mmHg 85%
    05:00 +16°C° 0 mm 1 m/s 624 mmHg 84%
    06:00 +16°C° 0 mm 1 m/s 624 mmHg 83%
    07:00 +18°C° 0 mm 1 m/s 625 mmHg 77%
    08:00 +20°C° 0,1 mm 1 m/s 625 mmHg 69%
    09:00 +21°C° 0,1 mm 2 m/s 626 mmHg 60%
    10:00 +24°C° 0,1 mm 3 m/s 627 mmHg 52%
    11:00 +25°C° 0,1 mm 3 m/s 627 mmHg 48%
    12:00 +26°C° 0,1 mm 2 m/s 626 mmHg 44%
    13:00 +27°C° 0,1 mm 2 m/s 626 mmHg 40%
    14:00 +26°C° 0,2 mm 2 m/s 626 mmHg 44%
    15:00 +25°C° 0,2 mm 2 m/s 625 mmHg 48%
    16:00 +24°C° 0,2 mm 1 m/s 625 mmHg 52%
    17:00 +22°C° 0 mm 1 m/s 624 mmHg 58%
    18:00 +20°C° 0 mm 1 m/s 624 mmHg 65%
    19:00 +18°C° 0 mm 1 m/s 623 mmHg 71%
    20:00 +16°C° 0 mm 1 m/s 623 mmHg 72%
    21:00 +16°C° 0 mm 1 m/s 623 mmHg 74%
    22:00 +15°C° 0 mm 1 m/s 623 mmHg 75%
    23:00 +16°C° 0 mm 1 m/s 624 mmHg 75%

    Mâine, 29 Mai, Luni

    Timp Temperatura Precipitaţii Vânt Presiune Umiditate
    00:00 +16°C° 0 mm 1 m/s 624 mmHg 74%
    01:00 +16°C° 0 mm 1 m/s 624 mmHg 74%
    02:00 +16°C° 0 mm 1 m/s 623 mmHg 74%
    03:00 +16°C° 0 mm 1 m/s 623 mmHg 74%
    04:00 +16°C° 0 mm 1 m/s 623 mmHg 75%
    05:00 +16°C° 0 mm 1 m/s 624 mmHg 76%
    06:00 +16°C° 0 mm 1 m/s 624 mmHg 77%
    07:00 +16°C° 0 mm 1 m/s 624 mmHg 79%
    08:00 +18°C° 0 mm 1 m/s 625 mmHg 72%
    09:00 +19°C° 0 mm 2 m/s 625 mmHg 65%
    10:00 +20°C° 0 mm 2 m/s 626 mmHg 58%
    11:00 +20°C° 0 mm 2 m/s 626 mmHg 54%
    12:00 +21°C° 0 mm 2 m/s 626 mmHg 50%
    13:00 +23°C° 0 mm 1 m/s 625 mmHg 46%
    14:00 +23°C° 0 mm 1 m/s 625 mmHg 46%
    15:00 +23°C° 0 mm 1 m/s 625 mmHg 46%
    16:00 +23°C° 0 mm 1 m/s 625 mmHg 46%
    17:00 +21°C° 0 mm 1 m/s 624 mmHg 50%
    18:00 +20°C° 0 mm 1 m/s 624 mmHg 53%
    19:00 +18°C° 0 mm 1 m/s 624 mmHg 57%
    20:00 +18°C° 0 mm 1 m/s 624 mmHg 55%
    21:00 +18°C° 0 mm 1 m/s 625 mmHg 53%
    22:00 +18°C° 0 mm 1 m/s 625 mmHg 52%
    23:00 +18°C° 0 mm 1 m/s 625 mmHg 51%

    Poimâine, 30 Mai, Marţi

    Timp Temperatura Precipitaţii Vânt Presiune Umiditate
    00:00 +17°C° 0 mm 2 m/s 625 mmHg 51%
    01:00 +16°C° 0 mm 2 m/s 625 mmHg 51%
    02:00 +16°C° 0 mm 2 m/s 624 mmHg 51%
    03:00 +15°C° 0 mm 2 m/s 624 mmHg 51%
    04:00 +15°C° 0 mm 2 m/s 624 mmHg 50%
    05:00 +15°C° 0 mm 2 m/s 624 mmHg 51%
    06:00 +15°C° 0 mm 2 m/s 625 mmHg 51%
    07:00 +15°C° 0 mm 2 m/s 625 mmHg 51%
    08:00 +18°C° 0 mm 2 m/s 626 mmHg 45%
    09:00 +20°C° 0 mm 3 m/s 627 mmHg 40%
    10:00 +22°C° 0 mm 4 m/s 628 mmHg 34%
    11:00 +25°C° 0 mm 3 m/s 628 mmHg 33%
    12:00 +26°C° 0 mm 3 m/s 627 mmHg 31%
    13:00 +27°C° 0 mm 3 m/s 627 mmHg 30%
    14:00 +26°C° 0 mm 3 m/s 627 mmHg 32%
    15:00 +26°C° 0 mm 2 m/s 626 mmHg 33%
    16:00 +26°C° 0 mm 2 m/s 626 mmHg 35%
    17:00 +24°C° 0 mm 2 m/s 625 mmHg 40%
    18:00 +22°C° 0 mm 1 m/s 625 mmHg 44%
    19:00 +20°C° 0 mm 1 m/s 625 mmHg 48%
    20:00 +20°C° 0 mm 1 m/s 625 mmHg 50%
    21:00 +19°C° 0 mm 1 m/s 625 mmHg 51%
    22:00 +19°C° 0 mm 1 m/s 625 mmHg 52%
    23:00 +18°C° 0 mm 1 m/s 625 mmHg 55%

    31 Mai, Miercuri

    Timp Temperatura Precipitaţii Vânt Presiune Umiditate
    00:00 +17°C° 0 mm 2 m/s 625 mmHg 58%
    01:00 +16°C° 0 mm 2 m/s 625 mmHg 60%
    02:00 +16°C° 0 mm 2 m/s 624 mmHg 63%
    03:00 +15°C° 0 mm 2 m/s 624 mmHg 66%
    04:00 +14°C° 0 mm 2 m/s 624 mmHg 69%
    05:00 +14°C° 0 mm 2 m/s 624 mmHg 69%
    06:00 +15°C° 0 mm 1 m/s 625 mmHg 69%
    07:00 +15°C° 0 mm 1 m/s 625 mmHg 69%
    08:00 +17°C° 0 mm 2 m/s 626 mmHg 59%
    09:00 +20°C° 0 mm 3 m/s 627 mmHg 49%
    10:00 +22°C° 0 mm 4 m/s 628 mmHg 38%
    11:00 +25°C° 0 mm 3 m/s 627 mmHg 36%
    12:00 +26°C° 0 mm 3 m/s 627 mmHg 33%
    13:00 +27°C° 0 mm 2 m/s 627 mmHg 30%
    14:00 +26°C° 0 mm 2 m/s 626 mmHg 32%
    15:00 +26°C° 0 mm 2 m/s 626 mmHg 33%
    16:00 +25°C° 0 mm 2 m/s 625 mmHg 35%
    17:00 +23°C° 0 mm 2 m/s 625 mmHg 38%
    18:00 +21°C° 0 mm 1 m/s 625 mmHg 42%
    19:00 +19°C° 0 mm 1 m/s 625 mmHg 46%
    20:00 +19°C° 0 mm 1 m/s 625 mmHg 46%
    21:00 +18°C° 0 mm 1 m/s 625 mmHg 46%
    22:00 +17°C° 0 mm 2 m/s 625 mmHg 46%
    23:00 +15°C° 0 mm 2 m/s 624 mmHg 51%

    1 Iunie, Joi

    Timp Temperatura Precipitaţii Vânt Presiune Umiditate
    00:00 +14°C° 0 mm 1 m/s 624 mmHg 56%
    01:00 +12°C° 0 mm 1 m/s 623 mmHg 60%
    02:00 +12°C° 0 mm 1 m/s 623 mmHg 63%
    03:00 +11°C° 0 mm 1 m/s 622 mmHg 66%
    04:00 +10°C° 0 mm 1 m/s 622 mmHg 68%
    05:00 +11°C° 0 mm 1 m/s 623 mmHg 67%
    06:00 +12°C° 0 mm 1 m/s 624 mmHg 66%
    07:00 +13°C° 0 mm 1 m/s 625 mmHg 65%
    08:00 +15°C° 0 mm 2 m/s 626 mmHg 55%
    09:00 +18°C° 0 mm 3 m/s 627 mmHg 45%
    10:00 +21°C° 0 mm 4 m/s 627 mmHg 36%
    11:00 +22°C° 0 mm 3 m/s 627 mmHg 33%
    12:00 +25°C° 0 mm 3 m/s 627 mmHg 30%
    13:00 +26°C° 0 mm 2 m/s 626 mmHg 26%
    14:00 +26°C° 0 mm 2 m/s 626 mmHg 27%
    15:00 +25°C° 0 mm 2 m/s 625 mmHg 27%
    16:00 +25°C° 0 mm 2 m/s 625 mmHg 27%
    17:00 +21°C° 0 mm 2 m/s 624 mmHg 34%
    18:00 +18°C° 0 mm 2 m/s 624 mmHg 41%
    19:00 +15°C° 0 mm 2 m/s 623 mmHg 47%
    20:00 +14°C° 0 mm 2 m/s 623 mmHg 50%
    21:00 +13°C° 0 mm 2 m/s 623 mmHg 53%
    22:00 +12°C° 0 mm 2 m/s 623 mmHg 55%
    23:00 +12°C° 0 mm 1 m/s 623 mmHg 59%

    2 Iunie, Vineri

    Timp Temperatura Precipitaţii Vânt Presiune Umiditate
    00:00 +11°C° 0 mm 1 m/s 622 mmHg 63%
    01:00 +10°C° 0 mm 1 m/s 622 mmHg 67%
    02:00 +10°C° 0 mm 1 m/s 622 mmHg 69%
    03:00 +9°C° 0 mm 1 m/s 622 mmHg 72%
    04:00 +9°C° 0 mm 1 m/s 621 mmHg 74%
    05:00 +10°C° 0 mm 1 m/s 622 mmHg 71%
    06:00 +11°C° 0 mm 1 m/s 623 mmHg 69%
    07:00 +12°C° 0 mm 1 m/s 624 mmHg 66%
    08:00 +15°C° 0 mm 2 m/s 625 mmHg 56%
    09:00 +18°C° 0 mm 2 m/s 626 mmHg 45%
    10:00 +21°C° 0 mm 3 m/s 627 mmHg 35%
    11:00 +22°C° 0 mm 3 m/s 627 mmHg 32%
    12:00 +25°C° 0 mm 2 m/s 626 mmHg 28%
    13:00 +26°C° 0 mm 2 m/s 626 mmHg 25%
    14:00 +26°C° 0 mm 2 m/s 625 mmHg 25%
    15:00 +25°C° 0 mm 2 m/s 625 mmHg 26%
    16:00 +25°C° 0 mm 2 m/s 624 mmHg 26%
    17:00 +20°C° 0 mm 2 m/s 624 mmHg 33%
    18:00 +17°C° 0 mm 2 m/s 623 mmHg 39%
    19:00 +14°C° 0 mm 2 m/s 622 mmHg 46%
    20:00 +13°C° 0 mm 1 m/s 622 mmHg 48%
    21:00 +12°C° 0 mm 1 m/s 622 mmHg 50%
    22:00 +11°C° 0 mm 1 m/s 622 mmHg 51%
    23:00 +11°C° 0 mm 1 m/s 622 mmHg 56%
    Arată mai mult